Regional Weather Roundup
Issued by NWS

Home | Current Version | Previous Version | Text Only | Print | Product List | Glossary Off
Versions: 1 2 3 4 5 6 7 8 9 10 11 12 13 14 15 16 17 18 19 20 21 22 23 24 25 26 27 28 29 30 31 32 33 34 35 36 37 38 39 40 41 42 43 44 45 46 47 48 49 50

000
ASUS45 KABQ 241401
RWRNM
NEW MEXICO REGIONAL WEATHER ROUNDUP
NATIONAL WEATHER SERVICE ALBUQUERQUE NM
800 AM MDT FRI MAR 24 2017

NOTE: "FAIR" MEANS FEW OR NO CLOUDS BELOW 12,000 FEET AGL WITH NO
       SIGNIFICANT WEATHER OR OBSTRUCTIONS TO VISION.

      THIS PRODUCT IS RELEASED AS TWO VERSIONS.  ONE VERSION NEAR
      THE TOP OF THE HOUR CONTAINING PRELIMINARY DATA FROM ALBUQUERQUE
      AND OTHER STATIONS.  A FINAL VERSION WITH ADDITIONAL DATA IS
      ISSUED ABOUT 10 MINUTES AFTER THE HOUR.

NMZ501-503-504-510>518-241500-
NORTHWEST PLATEAU/NORTHCENTRAL MOUNTAINS

CITY           SKY/WX    TMP DP  RH WIND       PRES   REMARKS
FARMINGTON     FAIR      40  27  59 W36G43    29.96R WCI  27
LOS ALAMOS     PTSUNNY   34  34 100 SE3       29.89R
SANTA FE       CLOUDY    39  36  89 NE5       29.87R
TAOS             N/A     34  27  75 N16       29.87R WCI  23

$$
NMZ402-403-502-505>509-241500-
WESTCENTRAL MOUNTAINS/SOUTHWEST MOUNTAINS

CITY           SKY/WX    TMP DP  RH WIND       PRES   REMARKS
GALLUP         FAIR      34  27  75 W10       30.13R WCI  26
GRANTS         FAIR      37  27  68 NW31G45   30.04R WCI  23
SILVER CITY    FAIR      41  28  61 NW30G38   30.05R

$$
NMZ407-409-411-412-241500-
SOUTHERN DESERTS

CITY           SKY/WX    TMP DP  RH WIND       PRES   REMARKS
DEMING         FAIR      43  29  57 W23       30.10R
LAS CRUCES     FAIR      44  28  53 W18G24    30.09R
HOLLOMAN AFB   FAIR      44  27  51 W10       30.05R
ALAMOGORDO     FAIR      46  27  46 CALM      30.03R
T OR C         FAIR      49  22  34 NW23G44   30.00R

$$
NMZ519>523-241500-
CENTRAL VALLEYS/CENTRAL HIGHLANDS

CITY           SKY/WX    TMP DP  RH WIND       PRES   REMARKS
ALBUQUERQUE    PTSUNNY   47  27  45 N12G22    29.98R
DOUBLE EAGLE   PTSUNNY   43  27  52 W32G44    29.94R
MORIARTY ARPT  FAIR      42  31  64 W30G37    29.85R
CLINES CORNERS FAIR      36  28  73 W38G51    29.82R WCI  22
BELEN          FAIR      47  26  44 W22       29.98R
SOCORRO        FAIR      47  23  38 NW39G58   29.93R HAZE

$$
NMZ524>526-539-540-241500-
SOUTHCENTRAL MOUNTAINS

CITY           SKY/WX    TMP DP  RH WIND       PRES   REMARKS
RUIDOSO        NOT AVBL

$$
NMZ527>531-241500-
NORTHEAST HIGHLANDS/NORTHEAST PLAINS

CITY           SKY/WX    TMP DP  RH WIND       PRES   REMARKS
LAS VEGAS      PTSUNNY   42  28  57 N23G33    29.76R
RATON          LGT SNOW  36  31  82 N25G40    29.72R WCI  24
CLAYTON        LGT RAIN  40  36  86 NW38G56   29.52R WCI  27

$$
NMZ532>537-241500-
EASTCENTRAL PLAINS

CITY           SKY/WX    TMP DP  RH WIND       PRES   REMARKS
TUCUMCARI      CLOUDY    51  37  58 NW20G36   29.65R
CANNON AFB     LGT RAIN  45  41  88 W22G39    29.72R
CLOVIS AIRPORT CLOUDY    46  32  57 W29G39    29.72R

$$
NMZ028-029-538-241500-
SOUTHEAST PLAINS

CITY           SKY/WX    TMP DP  RH WIND       PRES   REMARKS
ROSWELL        FAIR      55  24  30 W14         N/A
ARTESIA        FAIR      54  28  37 W26G38    29.86R
CARLSBAD       FAIR      55  27  34 W36G47    29.86S
HOBBS          SUNNY     50  25  37 SW24      29.87S


$$



USA.gov is the U.S. government's official web portal to all federal, state and local government web resources and services.